EW6058 Weather Reports


Display with metric or nautical units.
time (UTC)temp
F
wind
direction
speed
MPH
gust
MPH
rain 1hr
in
rain 24hr
in
rain mn
in
humidity
%
barometer
mb
20260904141002 73 211 0.0 0.0 0.00 0.00 0.00 90 1009.6
20260904140503 73 211 0.0 0.0 0.00 0.00 0.00 91 1009.7
20260904140003 73 211 0.0 0.0 0.00 0.00 0.00 91 1009.7
20260904135504 73 211 0.0 0.0 0.00 0.00 0.00 92 1009.7
20260904135008 73 211 0.0 0.0 0.00 0.00 0.00 92 1009.7
20260904134507 73 211 0.0 0.0 0.00 0.00 0.00 92 1009.8
20260904134009 72 211 0.0 0.0 0.00 0.00 0.00 93 1009.7
20260904133503 72 211 0.0 0.0 0.00 0.00 0.00 93 1009.7
20260904133010 72 211 0.0 0.0 0.00 0.00 0.00 93 1009.8
20260904132509 72 211 0.0 0.0 0.00 0.00 0.00 94 1009.8
20260904132007 72 211 0.0 0.0 0.00 0.00 0.00 94 1009.8
20260904131503 71 211 0.0 0.0 0.00 0.01 0.00 95 1009.8
20260904131003 71 211 0.0 0.0 0.00 0.01 0.00 95 1009.7
20260904130502 71 211 0.0 0.0 0.00 0.01 0.00 95 1009.8
20260904130003 71 211 0.0 0.0 0.00 0.01 0.00 95 1009.9
20260904125504 71 211 0.0 0.0 0.00 0.01 0.00 95 1009.8
20260904125006 71 211 0.0 0.0 0.00 0.01 0.00 95 1009.8
20260904124504 70 211 0.0 0.0 0.00 0.02 0.00 95 1009.9
20260904124005 70 211 0.0 0.0 0.00 0.02 0.00 96 1010.0
20260904123505 70 211 0.0 0.0 0.00 0.03 0.00 96 1010.0
20260904123009 70 211 0.0 0.0 0.00 0.03 0.00 96 1010.0
20260904122507 70 211 0.0 0.0 0.00 0.04 0.00 96 1010.0
20260904122008 70 211 0.0 0.0 0.00 0.05 0.00 96 1010.1
20260904121510 70 211 0.0 0.0 0.00 0.06 0.00 97 1010.1
20260904121008 70 211 0.0 0.0 0.00 0.08 0.00 96 1010.2
20260904120506 70 211 0.0 0.0 0.00 0.10 0.00 96 1010.2
20260904120005 70 211 0.0 0.0 0.00 0.12 0.00 96 1010.2
20260904115504 69 211 0.0 0.0 0.00 0.14 0.00 96 1010.3
20260904115005 69 211 0.0 0.0 0.00 0.14 0.00 97 1010.3
20260904114504 69 211 0.0 0.0 0.00 0.14 0.00 96 1010.3
20260904114004 69 211 0.0 0.0 0.00 0.14 0.00 96 1010.3
20260904113506 69 211 0.0 0.0 0.00 0.15 0.00 96 1010.3
20260904113015 69 211 0.0 0.0 0.00 0.16 0.00 96 1010.2
20260904112507 69 211 0.0 0.0 0.00 0.16 0.00 96 1010.2
20260904112008 68 211 0.0 0.0 0.00 0.18 0.00 96 1010.3
20260904111516 68 211 0.0 0.0 0.00 0.20 0.00 96 1010.3
20260904111010 68 211 0.0 0.0 0.00 0.22 0.00 96 1010.3
20260904110510 68 211 0.0 0.0 0.00 0.24 0.00 96 1010.3
20260904110030 68 211 0.0 0.0 0.00 0.27 0.00 96 1010.2
20260904105508 68 211 0.0 0.0 0.00 0.31 0.00 96 1010.1
20260904105013 68 211 0.0 0.0 0.00 0.34 0.00 96 1010.0
20260904104504 68 211 0.0 0.0 0.00 0.36 0.00 96 1009.9
20260904104004 68 211 0.0 0.0 0.00 0.38 0.00 96 1010.0
20260904103503 68 211 0.0 0.0 0.00 0.41 0.00 96 1009.9
20260904103007 68 211 0.0 0.0 0.00 0.44 0.00 96 1009.8
20260904102504 68 211 0.0 0.0 0.00 0.48 0.00 96 1009.8
20260904102005 68 211 0.0 0.0 0.00 0.60 0.00 96 1009.9
20260904101508 68 211 0.0 0.0 0.00 0.60 0.00 96 1009.8
20260904101008 68 211 0.0 0.0 0.00 0.62 0.00 96 1009.7
20260904100511 68 211 0.0 0.0 0.00 0.67 0.00 96 1009.7
20260904100018 68 211 0.0 0.0 0.00 0.73 0.00 96 1009.7
20260904095509 68 211 0.0 0.0 0.00 0.77 0.00 96 1009.5
20260904095011 68 211 0.0 0.0 0.00 0.82 0.00 96 1009.6
20260904094520 68 211 0.0 0.0 0.00 0.86 0.00 96 1009.5
20260904094010 68 211 0.0 0.0 0.00 0.86 0.00 96 1009.6
20260904093513 67 211 0.0 0.0 0.00 0.86 0.00 96 1009.7
20260904093006 67 211 0.0 0.0 0.00 0.86 0.00 96 1009.6
20260904092504 67 211 0.0 0.0 0.00 0.86 0.00 96 1009.4
20260904092013 67 211 0.0 0.0 0.00 0.86 0.00 96 1009.5
20260904091508 67 211 0.0 0.0 0.00 0.86 0.00 95 1009.6
20260904091006 67 211 0.0 0.0 0.00 0.86 0.00 96 1009.7
20260904090511 67 211 0.0 0.0 0.00 0.86 0.00 95 1009.9
20260904090014 67 211 0.0 0.0 0.00 0.86 0.00 95 1009.9
20260904085510 67 211 0.0 0.0 0.00 0.86 0.00 95 1009.8
20260904085013 67 211 0.0 0.0 0.00 0.86 0.00 95 1009.8
20260904084523 67 211 0.0 0.0 0.00 0.86 0.00 95 1009.9
20260904084011 67 211 0.0 0.0 0.00 0.86 0.00 95 1009.7
20260904083513 67 211 0.0 0.0 0.00 0.86 0.00 95 1009.6
20260904083018 67 211 0.0 0.0 0.00 0.86 0.00 95 1009.6
20260904082514 68 211 0.0 0.0 0.00 0.86 0.00 95 1009.7
20260904082014 68 211 0.0 0.0 0.00 0.86 0.00 95 1009.7
20260904081505 68 211 0.0 0.0 0.00 0.86 0.00 95 1009.6
20260904081016 68 211 0.0 0.0 0.00 0.86 0.00 95 1009.7
20260904080512 68 211 0.0 0.0 0.00 0.86 0.00 95 1009.6
20260904080010 68 211 0.0 0.0 0.00 0.86 0.00 95 1009.8
20260904075508 68 211 0.0 0.0 0.00 0.86 0.00 95 1009.9
20260904075012 68 211 0.0 0.0 0.00 0.86 0.00 95 1009.9
20260904074518 68 211 0.0 0.0 0.00 0.86 0.00 95 1009.8
20260904074011 68 211 0.0 0.0 0.00 0.86 0.00 95 1009.9
20260904073513 68 211 0.0 0.0 0.00 0.86 0.00 95 1009.9
20260904073024 68 211 0.0 0.0 0.00 0.86 0.00 95 1010.0
20260904072516 68 211 0.0 0.0 0.00 0.86 0.00 95 1010.2
20260904072014 69 211 0.0 0.0 0.00 0.86 0.00 95 1010.1
20260904071523 69 211 0.0 0.0 0.00 0.86 0.00 95 1010.2
20260904071012 69 211 0.0 0.0 0.00 0.86 0.00 95 1010.2
20260904070516 69 211 0.0 0.0 0.00 0.86 0.00 95 1010.3
20260904070038 69 211 0.0 0.0 0.00 0.86 0.00 95 1010.4
20260904065508 69 211 0.0 0.0 0.00 0.86 0.00 95 1010.6
20260904065009 69 211 0.0 0.0 0.00 0.86 0.00 95 1010.6
20260904064513 69 211 0.0 0.0 0.00 0.86 0.00 95 1010.5
20260904064010 69 211 0.0 0.0 0.00 0.86 0.00 95 1010.5
20260904063510 69 211 0.0 0.0 0.00 0.86 0.00 95 1010.4
20260904063018 69 211 0.0 0.0 0.00 0.86 0.00 95 1010.4
20260904062517 69 211 0.0 0.0 0.00 0.86 0.00 95 1010.6
20260904062018 69 211 0.0 0.0 0.00 0.86 0.00 95 1010.6
20260904061526 69 211 0.0 0.0 0.00 0.86 0.00 95 1010.7
20260904061015 69 211 0.0 0.0 0.00 0.86 0.00 95 1010.7
20260904060514 69 211 0.0 0.0 0.00 0.86 0.00 95 1010.6
20260904060026 69 211 0.0 0.0 0.00 0.86 0.00 95 1010.5
20260904055515 69 211 0.0 0.0 0.00 0.86 0.00 95 1010.7
20260904055015 69 211 0.0 0.0 0.00 0.86 0.00 95 1010.7
20260904054520 69 211 0.0 0.0 0.00 0.86 0.00 95 1010.9
20260904054009 69 211 0.0 0.0 0.00 0.86 0.00 95 1011.0
20260904053508 69 211 0.0 0.0 0.00 0.86 0.00 95 1011.2
20260904053016 69 211 0.0 0.0 0.00 0.86 0.00 95 1011.3
20260904052512 70 211 0.0 0.0 0.00 0.86 0.00 95 1011.2
20260904052012 70 211 0.0 0.0 0.00 0.86 0.00 95 1011.2
20260904051523 70 211 0.0 0.0 0.00 0.86 0.00 95 1011.3
20260904051020 70 211 0.0 0.0 0.00 0.86 0.00 95 1011.4
20260904050514 69 211 0.0 0.0 0.00 0.86 0.00 95 1011.3
20260904050012 69 211 0.0 0.0 0.00 0.86 0.00 95 1011.5
20260904045505 70 211 0.0 0.0 0.00 0.86 0.00 95 1011.7
20260904045005 70 211 0.0 0.0 0.00 0.86 0.00 95 1011.8
20260904044507 70 211 0.0 0.0 0.00 0.86 0.00 95 1011.7
20260904044003 70 211 0.0 0.0 0.00 0.86 0.00 95 1011.7
20260904043506 70 211 0.0 0.0 0.00 0.86 0.00 95 1011.8
20260904043027 70 211 0.0 0.0 0.00 0.86 0.00 95 1011.8
20260904042509 70 211 0.0 0.0 0.00 0.86 0.00 95 1011.8
20260904042012 70 211 0.0 0.0 0.00 0.86 0.00 95 1011.7
20260904041519 70 211 0.0 0.0 0.00 0.86 0.00 95 1011.7
20260904041013 70 211 0.0 0.0 0.00 0.86 0.00 95 1011.5
20260904040516 70 211 0.0 0.0 0.00 0.86 0.00 95 1011.7
20260904040027 70 211 0.0 0.0 0.00 0.86 0.00 95 1011.9
20260904035517 70 211 0.0 0.0 0.00 0.86 0.86 95 1011.8
20260904035015 70 211 0.0 0.0 0.00 0.86 0.86 95 1011.8
20260904034509 70 211 0.0 0.0 0.00 0.86 0.86 95 1011.9
20260904034003 70 211 0.0 0.0 0.00 0.86 0.86 95 1012.0
20260904033505 70 211 0.0 0.0 0.00 0.86 0.86 95 1012.1
20260904033010 70 211 0.0 0.0 0.00 0.86 0.86 95 1011.9
20260904032509 69 211 0.0 0.0 0.00 0.86 0.86 95 1011.8
20260904032008 69 211 0.0 0.0 0.00 0.86 0.86 95 1011.8
20260904031516 69 211 0.0 0.0 0.00 0.86 0.86 95 1011.7
20260904031011 69 211 0.0 0.0 0.00 0.86 0.86 94 1011.7
20260904030513 69 211 0.0 0.0 0.00 0.86 0.86 94 1011.7
20260904030023 69 211 0.0 0.0 0.00 0.86 0.86 94 1011.9
20260904025515 69 211 0.0 0.0 0.00 0.86 0.86 94 1011.9
20260904025014 69 211 0.0 0.0 0.00 0.86 0.86 94 1012.0
20260904024530 69 211 0.0 0.0 0.00 0.86 0.86 94 1012.0
20260904024014 70 211 0.0 0.0 0.00 0.86 0.86 94 1012.1
20260904023514 70 211 0.0 0.0 0.00 0.86 0.86 94 1012.0
20260904023008 70 211 0.0 0.0 0.00 0.86 0.86 94 1012.2
20260904022507 70 211 0.0 0.0 0.00 0.86 0.86 94 1012.2
20260904022008 70 211 0.0 0.0 0.00 0.86 0.86 94 1012.2
20260904021511 70 211 0.0 0.0 0.00 0.86 0.86 94 1012.2
20260904021008 70 211 0.0 0.0 0.00 0.86 0.86 94 1012.2
20260904020512 70 211 0.0 0.0 0.00 0.86 0.86 94 1012.3
20260904020020 70 211 0.0 0.0 0.00 0.86 0.86 94 1012.4
20260904015517 70 211 0.0 0.0 0.00 0.86 0.86 94 1012.5
20260904015015 70 211 0.0 0.0 0.00 0.86 0.86 94 1012.5
20260904014525 70 211 0.0 0.0 0.00 0.86 0.86 94 1012.8
20260904014017 70 211 0.0 0.0 0.00 0.86 0.86 94 1013.0
20260904013514 70 211 0.0 0.0 0.00 0.86 0.86 94 1013.0
20260904013033 70 211 0.0 0.0 0.00 0.86 0.86 94 1012.8
20260904012517 70 211 0.0 0.0 0.00 0.86 0.86 94 1012.7
20260904012016 70 211 0.0 0.0 0.00 0.86 0.86 94 1012.8
20260904011537 70 211 0.0 0.0 0.00 0.86 0.86 94 1012.8
20260904011008 70 211 0.0 0.0 0.00 0.86 0.86 94 1012.9
20260904010508 70 211 0.0 0.0 0.00 0.86 0.86 94 1012.8
20260904010016 70 211 0.0 0.0 0.00 0.86 0.86 94 1012.8
20260904005517 70 211 0.0 0.0 0.00 0.86 0.86 94 1012.8
20260904005017 70 211 0.0 0.0 0.00 0.86 0.86 94 1012.8
20260904004519 70 211 0.0 0.0 0.00 0.86 0.86 94 1012.7
20260904004017 70 211 0.0 0.0 0.00 0.86 0.86 94 1012.5
20260904003521 70 211 0.0 0.0 0.00 0.86 0.86 94 1012.3
20260904003026 70 211 0.0 0.0 0.00 0.86 0.86 94 1012.2
20260904002515 70 211 0.0 0.0 0.00 0.86 0.86 94 1012.0
20260904002014 70 211 0.0 0.0 0.00 0.86 0.86 93 1012.1
20260904001530 70 211 0.0 0.0 0.00 0.86 0.86 93 1012.0
20260904001018 70 211 0.0 0.0 0.00 0.86 0.86 93 1012.1
20260904000515 70 211 0.0 0.0 0.00 0.86 0.86 93 1012.1
20260904000029 70 211 0.0 0.0 0.00 0.86 0.86 93 1012.0
20260903235514 70 211 0.0 0.0 0.00 0.86 0.86 92 1011.8
20260903235018 70 211 0.0 0.0 0.00 0.86 0.86 92 1011.7
20260903234535 70 211 0.0 0.0 0.00 0.86 0.86 92 1011.7
20260903234020 71 211 0.0 0.0 0.00 0.86 0.86 92 1011.7
20260903233516 71 211 0.0 0.0 0.00 0.86 0.86 92 1011.7
20260903233027 71 211 0.0 0.0 0.00 0.86 0.86 92 1011.7
20260903232514 71 211 0.0 0.0 0.00 0.86 0.86 92 1011.7
20260903232014 71 211 0.0 0.0 0.00 0.86 0.86 92 1011.7
20260903231532 71 211 0.0 0.0 0.00 0.86 0.86 91 1011.8
20260903231016 71 211 0.0 0.0 0.00 0.86 0.86 91 1011.8
20260903230516 71 211 0.0 0.0 0.00 0.86 0.86 91 1011.8
20260903230041 72 211 0.0 0.0 0.00 0.86 0.86 91 1011.9
20260903225517 72 211 0.0 0.0 0.00 0.86 0.86 91 1011.9
20260903225009 72 211 0.0 0.0 0.00 0.86 0.86 91 1011.9
20260903224515 72 211 0.0 0.0 0.00 0.86 0.86 91 1011.8
20260903224010 72 211 0.0 0.0 0.00 0.86 0.86 91 1012.0
20260903223510 72 211 0.0 0.0 0.00 0.86 0.86 90 1012.1
20260903223024 73 211 0.0 0.0 0.00 0.86 0.86 90 1012.1
20260903222512 73 211 0.0 0.0 0.00 0.86 0.86 90 1012.1
20260903222016 73 211 0.0 0.0 0.00 0.86 0.86 89 1012.2
20260903221529 73 211 0.0 0.0 0.00 0.86 0.86 89 1012.1
20260903221013 73 211 0.0 0.0 0.00 0.86 0.86 89 1012.2
20260903220515 73 229 0.0 0.0 0.00 0.86 0.86 89 1012.1
20260903220032 73 229 0.0 0.0 0.00 0.86 0.86 89 1012.0
20260903215517 74 229 0.0 0.0 0.00 0.86 0.86 89 1012.0
20260903215016 74 229 0.0 0.0 0.00 0.86 0.86 88 1011.9
20260903214535 74 229 0.0 0.0 0.00 0.86 0.86 88 1011.9
20260903214014 74 229 0.0 0.0 0.00 0.86 0.86 87 1012.0
20260903213511 74 229 0.0 0.0 0.00 0.86 0.86 87 1012.1
20260903213030 74 199 0.0 0.0 0.00 0.86 0.86 87 1012.1
20260903212515 74 199 0.0 0.0 0.00 0.86 0.86 88 1011.9
20260903212012 74 199 0.0 0.0 0.00 0.86 0.86 87 1011.9
20260903211526 74 199 0.0 0.0 0.00 0.86 0.86 87 1012.0
20260903211016 74 199 0.0 0.0 0.00 0.86 0.86 87 1012.0
20260903210514 74 215 0.0 0.0 0.00 0.86 0.86 87 1012.0
20260903210031 74 218 0.0 0.0 0.00 0.86 0.86 87 1012.1
20260903205519 74 218 0.0 0.0 0.00 0.86 0.86 86 1012.0
20260903205017 74 199 0.0 0.0 0.00 0.86 0.86 87 1012.0
20260903204535 74 213 0.0 0.0 0.00 0.86 0.86 87 1011.9
20260903204014 75 172 0.0 0.0 0.00 0.86 0.86 88 1012.0
20260903203522 74 172 0.0 0.0 0.00 0.86 0.86 89 1012.0
20260903203058 74 172 0.0 0.0 0.00 0.86 0.86 88 1011.9
20260903202518 74 172 0.0 0.0 0.00 0.86 0.86 88 1011.9
20260903202013 75 167 0.0 0.0 0.00 0.86 0.86 88 1012.1
20260903201533 74 219 0.0 0.0 0.00 0.86 0.86 87 1012.2
20260903201014 74 219 0.0 0.0 0.00 0.86 0.86 88 1012.3
20260903200503 74 219 0.0 0.0 0.00 0.86 0.86 89 1012.3
20260903200006 74 219 0.0 0.0 0.00 0.86 0.86 87 1012.3
20260903195515 74 219 0.0 0.0 0.00 0.86 0.86 88 1012.4
20260903195006 74 219 0.0 0.0 0.00 0.86 0.86 88 1012.4
20260903194509 74 219 0.0 0.0 0.00 0.86 0.86 88 1012.5
20260903194010 74 219 0.0 0.0 0.00 0.86 0.86 88 1012.5
20260903193507 74 219 0.0 0.0 0.00 0.86 0.86 88 1012.7
20260903193023 74 219 0.0 0.0 0.00 0.86 0.86 89 1012.9
20260903192508 74 219 0.0 0.0 0.00 0.86 0.86 88 1013.0
20260903192012 74 219 0.0 0.0 0.00 0.86 0.86 89 1012.9
20260903191519 74 219 0.0 0.0 0.00 0.86 0.86 90 1013.0
20260903191014 74 219 0.0 0.0 0.00 0.86 0.86 90 1013.0
20260903190514 74 354 0.0 0.0 0.00 0.86 0.86 90 1013.1
20260903190027 74 244 0.0 0.0 0.00 0.86 0.86 90 1013.1
20260903185513 74 244 0.0 0.0 0.00 0.86 0.86 90 1013.1
20260903185006 74 244 0.0 0.0 0.00 0.86 0.86 90 1013.2
20260903184506 74 244 0.0 0.0 0.00 0.86 0.86 91 1013.2
20260903184008 73 252 0.0 0.0 0.00 0.86 0.86 91 1013.3
20260903183505 73 252 0.0 0.0 0.00 0.86 0.86 93 1013.3
20260903183010 73 316 0.0 0.0 0.00 0.86 0.86 92 1013.3
20260903182508 73 316 0.0 0.0 0.00 0.86 0.86 92 1013.4
20260903182011 73 316 0.0 0.0 0.00 0.86 0.86 93 1013.4
20260903181518 73 316 0.0 0.0 0.00 0.86 0.86 94 1013.4
20260903181012 72 316 0.0 0.0 0.00 0.86 0.86 94 1013.3
20260903180515 72 359 0.0 0.0 0.00 0.86 0.86 93 1013.4
20260903180027 72 359 0.0 0.0 0.00 0.86 0.86 95 1013.4
20260903175515 72 359 0.0 0.0 0.00 0.86 0.86 94 1013.5
20260903175015 72 359 0.0 0.0 0.00 0.86 0.86 95 1013.5
20260903174530 72 359 0.0 0.0 0.00 0.86 0.86 95 1013.6
20260903174014 72 359 0.0 0.0 0.00 0.86 0.86 95 1013.6
20260903173505 73 359 0.0 0.0 0.00 0.86 0.86 95 1013.6
20260903173008 72 306 0.0 0.0 0.00 0.86 0.86 95 1013.8
20260903172507 72 306 0.0 0.0 0.00 0.86 0.86 95 1013.9
20260903172007 72 306 0.0 0.0 0.00 0.86 0.86 96 1013.8
20260903171514 72 306 0.0 0.0 0.00 0.86 0.86 96 1013.7
20260903171008 72 306 0.0 0.0 0.00 0.86 0.86 96 1013.7
20260903170510 72 306 0.0 0.0 0.00 0.86 0.86 95 1013.6
20260903170020 72 306 0.0 0.0 0.00 0.86 0.86 95 1013.5
20260903165511 72 306 0.0 0.0 0.00 0.86 0.86 95 1013.5
20260903165012 72 306 0.0 0.0 0.00 0.86 0.86 95 1013.4
20260903164528 72 309 0.0 0.0 0.00 0.86 0.86 96 1013.4
20260903164014 72 309 0.0 0.0 0.00 0.86 0.86 95 1013.4
20260903163515 72 309 0.0 0.0 0.00 0.86 0.86 96 1013.4
20260903163030 72 309 0.0 0.0 0.00 0.86 0.86 95 1013.5
20260903162520 72 309 0.0 0.0 0.00 0.86 0.86 96 1013.4
20260903162004 72 309 0.0 0.0 0.00 0.86 0.86 95 1013.4
20260903161510 72 309 0.0 0.0 0.00 0.86 0.86 95 1013.4
20260903161013 72 1 0.0 0.0 0.00 0.86 0.86 96 1013.4
20260903160510 72 1 0.0 0.0 0.00 0.86 0.86 95 1013.5
20260903160029 72 1 0.0 0.0 0.00 0.86 0.86 96 1013.8
20260903155515 72 1 0.0 0.0 0.00 0.86 0.86 96 1013.7
20260903155012 72 1 0.0 0.0 0.00 0.86 0.86 96 1013.8
20260903154533 72 1 0.0 0.0 0.00 0.86 0.86 96 1013.8
20260903154016 72 1 0.0 0.0 0.00 0.86 0.86 96 1013.8
20260903153515 72 1 0.0 0.0 0.00 0.86 0.86 96 1013.8
20260903153027 72 1 0.0 0.0 0.00 0.86 0.86 96 1014.0
20260903152515 71 1 0.0 0.0 0.00 0.86 0.86 96 1014.1
20260903152017 71 1 0.0 0.0 0.00 0.86 0.86 96 1014.2
20260903151529 71 1 0.0 0.0 0.00 0.86 0.86 97 1014.3
20260903151014 71 1 0.0 0.0 0.00 0.86 0.86 96 1014.2
20260903150508 71 1 0.0 0.0 0.00 0.86 0.86 96 1014.4
20260903150018 71 1 0.0 0.0 0.00 0.86 0.86 96 1014.4
20260903145512 70 1 0.0 0.0 0.00 0.86 0.86 96 1014.4
20260903145014 70 1 0.0 0.0 0.00 0.86 0.86 96 1014.6
20260903144539 70 1 0.0 0.0 0.00 0.86 0.86 96 1014.5
20260903144013 70 1 0.0 0.0 0.00 0.86 0.86 96 1014.6
20260903143515 70 1 0.0 0.0 0.00 0.86 0.86 96 1014.8
20260903143044 70 1 0.0 0.0 0.00 0.86 0.86 96 1014.9
20260903142515 69 1 0.0 0.0 0.00 0.86 0.86 96 1015.2
20260903142018 69 1 0.0 0.0 0.00 0.86 0.86 96 1015.2
20260903141534 69 1 0.0 0.0 0.01 0.86 0.86 96 1015.1